Home   Weather   Bloomington   Past weeks

Flag for USA Past Weather in Bloomington, Indiana, USA — Yesterday and Last 2 Weeks

Now
49 °F

Fog.


Feels Like: 45 °F
Forecast: 51 / 63 °F
Wind: 8 mph from Southeast

Location: Monroe County Airport

Current Time: Jan 21, 2017 at 8:48:38 am

Latest Report: Jan 21, 2017 at 8:11 am


Visibility: 1 mi

Pressure: 29.65 "Hg

Humidity: 93%

Dew Point: 47 °F

Location of BloomingtonLocation

Past Weather in Bloomington — Graph

°F

Bloomington Temperature Yesterday

Maximum temperature yesterday: 55 °F (at 3:53 pm)
Minimum temperature yesterday: 46 °F (at 12:53 am)
Average temperature yesterday: 52 °F

High & Low Weather Summary for the Past Weeks

 TemperatureHumidityPressure
High65 °F (Jan 12, 1:53 am)97% (Jan 16, 11:53 am)30.80 "Hg (Jan 16, 11:53 am)
Low-4 °F (Jan 7, 7:53 am)41% (Jan 8, 1:53 pm)29.59 "Hg (Jan 20, 4:53 am)
Average38 °F80%30.17 "Hg
* Reported Jan 6 7:53 am — Jan 21 7:36 am, Bloomington, Weather by CustomWeather, © 2017

Note: Actual official high and low records may vary slightly from our data, if they occured in-between our weather recording intervals... More about our weather records

Advertising

Bloomington Weather History for the Previous 24 Hours

Scroll right to see more
 ConditionsComfort  
Time TempWeatherWind HumidityBarometerVisibility
7:36 am
Sat, Jan 21
49 °FFog.7 mph90%29.64 "Hg2 mi
6:53 am49 °FFog.7 mph90%29.66 "Hg4 mi
5:53 am49 °FFog.8 mph93%29.65 "Hg5 mi
4:53 am50 °FFog.6 mph89%29.66 "Hg5 mi
3:53 am50 °FFog.8 mph93%29.67 "Hg6 mi
2:53 am51 °FClear.10 mph89%29.69 "Hg8 mi
1:53 am52 °FPassing clouds.9 mph86%29.68 "Hg10 mi
12:53 am52 °FOvercast.7 mph86%29.68 "Hg10 mi
11:53 pm
Fri, Jan 20
53 °FOvercast.6 mph83%29.70 "Hg10 mi
10:53 pm53 °FPartly cloudy.5 mph83%29.70 "Hg10 mi
9:53 pm53 °FMostly cloudy.5 mph83%29.69 "Hg10 mi
9:17 pm54 °FPassing clouds.8 mph80%29.69 "Hg10 mi
8:53 pm54 °FPartly cloudy.8 mph80%29.69 "Hg10 mi
7:53 pm54 °FOvercast.6 mph80%29.68 "Hg10 mi
6:53 pm52 °FPartly cloudy.No wind83%29.68 "Hg8 mi
5:53 pm54 °FOvercast.5 mph80%29.68 "Hg10 mi
5:14 pm55 °FOvercast.6 mph77%29.68 "Hg10 mi
5:04 pm55 °FMostly cloudy.5 mph77%29.69 "Hg10 mi
4:53 pm55 °FOvercast.5 mph77%29.68 "Hg10 mi
4:25 pm55 °FOvercast.6 mph74%29.67 "Hg10 mi
3:53 pm55 °FOvercast.6 mph74%29.66 "Hg10 mi
2:53 pm54 °FOvercast.9 mph74%29.67 "Hg10 mi
1:53 pm54 °FMostly cloudy.9 mph77%29.68 "Hg10 mi
12:53 pm54 °FMostly cloudy.10 mph77%29.69 "Hg10 mi
11:53 am54 °FOvercast.9 mph83%29.70 "Hg10 mi
11:34 am54 °FMore clouds than sun.10 mph83%29.71 "Hg10 mi
10:53 am53 °FMostly cloudy.10 mph86%29.72 "Hg10 mi
10:26 am53 °FMostly cloudy.10 mph86%29.71 "Hg10 mi
9:53 am53 °FMostly cloudy.10 mph89%29.70 "Hg10 mi
8:53 am53 °FLow clouds.15 mph89%29.66 "Hg10 mi
Weather by CustomWeather, © 2017

See weather overviewHow to use our weather pages